Location: Sternwarte ZA, Rosenfeld-Brittheim
(48.2889°N, 8.6789°E)
Time: 15:18:21
(UTC+02:00)

ISS - Pass Details

Date: 22 May 2018
Orbit: 402 x 407 km, 51.6° (Epoch: 27 May)

Event Time Altitude Azimuth Distance (km) Brightness Sun altitude
Rises 04:40:32 0° 287° (WNW) 2,320 -0.3 -8.3°
Reaches altitude 10° 04:42:55 10° 271° (W) 1,457 -1.4 -8.0°
Maximum altitude 04:45:27 21° 220° (SW) 966 -2.5 -7.7°
Drops below altitude 10° 04:47:59 10° 169° (SSE) 1,450 -1.3 -7.4°
Sets 04:50:22 0° 152° (SSE) 2,305 -0.1 -7.1°
